ANA261 RPLL-RJAA

Flight info

Callsign ANA261
Flight time N/A
Altitude 35000
Route CAB2R CAB R597 VIGOR A590 MDE/N0475F370 A590 BUBDO Y83 MOE Y81 RUTAS
Aircraft B763/H-SDE3FGHIM3RWXY/LB1

Departure

Time 2026-05-08 06:25
Airport Ninoy Aquino International Airport (RPLL)

Arrival

Time N/A
Airport Narita International Airport (RJAA)
Time Latitude Longitude Altitude Speed Heading
2026-05-08 05:55 14.51749 121.01420 84 ft 0 kts 46°
2026-05-08 06:09 14.51745 121.01416 84 ft 2 kts 46°
2026-05-08 06:10 14.51735 121.01405 84 ft 2 kts 46°
2026-05-08 06:10 14.51725 121.01394 84 ft 2 kts 46°
2026-05-08 06:10 14.51714 121.01382 84 ft 2 kts 46°
2026-05-08 06:10 14.51704 121.01372 84 ft 2 kts 57°
2026-05-08 06:11 14.51698 121.01357 84 ft 2 kts 86°
2026-05-08 06:11 14.51699 121.01342 84 ft 2 kts 110°
2026-05-08 06:11 14.51707 121.01329 84 ft 2 kts 135°
2026-05-08 06:11 14.51718 121.01318 84 ft 2 kts 137°
2026-05-08 06:12 14.51728 121.01308 84 ft 2 kts 134°
2026-05-08 06:12 14.51739 121.01297 84 ft 2 kts 135°
2026-05-08 06:12 14.51747 121.01288 84 ft 0 kts 135°
2026-05-08 06:14 14.51745 121.01291 84 ft 0 kts 135°
2026-05-08 06:14 14.51742 121.01293 84 ft 1 kts 135°
2026-05-08 06:15 14.51720 121.01315 84 ft 7 kts 140°
2026-05-08 06:15 14.51666 121.01314 84 ft 9 kts 207°
2026-05-08 06:15 14.51603 121.01334 84 ft 12 kts 143°
2026-05-08 06:15 14.51532 121.01408 84 ft 16 kts 133°
2026-05-08 06:16 14.51318 121.01629 84 ft 20 kts 136°
2026-05-08 06:16 14.51210 121.01739 84 ft 23 kts 135°
2026-05-08 06:16 14.51101 121.01853 84 ft 18 kts 135°
2026-05-08 06:17 14.50981 121.01881 84 ft 8 kts 239°
2026-05-08 06:17 14.50956 121.01831 84 ft 8 kts 237°
2026-05-08 06:17 14.50919 121.01769 84 ft 11 kts 240°
2026-05-08 06:18 14.50874 121.01689 84 ft 14 kts 239°
2026-05-08 06:18 14.50821 121.01589 84 ft 17 kts 239°
2026-05-08 06:18 14.50777 121.01512 84 ft 19 kts 239°
2026-05-08 06:18 14.50712 121.01394 84 ft 19 kts 240°
2026-05-08 06:19 14.50645 121.01276 84 ft 18 kts 239°
2026-05-08 06:19 14.50561 121.01122 84 ft 18 kts 241°
2026-05-08 06:19 14.50499 121.01013 84 ft 17 kts 240°
2026-05-08 06:19 14.50442 121.00911 84 ft 16 kts 240°
2026-05-08 06:20 14.50386 121.00812 84 ft 15 kts 240°
2026-05-08 06:20 14.50334 121.00716 84 ft 15 kts 240°
2026-05-08 06:20 14.50281 121.00620 84 ft 15 kts 240°
2026-05-08 06:20 14.50226 121.00523 84 ft 15 kts 240°
2026-05-08 06:21 14.50171 121.00423 84 ft 16 kts 240°
2026-05-08 06:21 14.50116 121.00325 84 ft 15 kts 239°
2026-05-08 06:21 14.50065 121.00226 84 ft 15 kts 242°
2026-05-08 06:21 14.50010 121.00128 84 ft 15 kts 239°
2026-05-08 06:22 14.49952 121.00031 84 ft 16 kts 238°
2026-05-08 06:22 14.49904 120.99967 84 ft 7 kts 209°
2026-05-08 06:22 14.49884 120.99966 84 ft 0 kts 169°
2026-05-08 06:22 14.49879 120.99967 84 ft 4 kts 162°
2026-05-08 06:23 14.49811 121.00012 84 ft 17 kts 126°
2026-05-08 06:23 14.49825 121.00087 84 ft 0 kts 61°
2026-05-08 06:24 14.49835 121.00107 84 ft 16 kts 61°
2026-05-08 06:24 14.49980 121.00381 84 ft 71 kts 60°
2026-05-08 06:24 14.50315 121.00974 84 ft 120 kts 61°
2026-05-08 06:25 14.50813 121.01868 88 ft 163 kts 68°
2026-05-08 06:25 14.51415 121.02936 427 ft 176 kts 58°
2026-05-08 06:25 14.52051 121.03953 1195 ft 167 kts 62°
2026-05-08 06:25 14.52702 121.04974 1629 ft 179 kts 59°
2026-05-08 06:26 14.53350 121.06114 2107 ft 189 kts 64°
2026-05-08 06:26 14.53962 121.07285 2747 ft 190 kts 60°
2026-05-08 06:26 14.54666 121.08494 3270 ft 200 kts 59°
2026-05-08 06:26 14.55682 121.09557 3507 ft 226 kts 30°
2026-05-08 06:27 14.57346 121.09946 3652 ft 261 kts 358°
2026-05-08 06:27 14.59135 121.09364 4139 ft 279 kts 334°
2026-05-08 06:27 14.60891 121.08555 4923 ft 278 kts 345°
2026-05-08 06:27 14.62772 121.08076 5690 ft 279 kts 352°
2026-05-08 06:28 14.64697 121.07752 6445 ft 280 kts 354°
2026-05-08 06:28 14.66643 121.07516 7192 ft 282 kts 356°
2026-05-08 06:28 14.68599 121.07333 7913 ft 284 kts 357°
2026-05-08 06:28 14.70566 121.07179 8640 ft 286 kts 358°
2026-05-08 06:29 14.72565 121.07038 9381 ft 287 kts 358°
2026-05-08 06:29 14.74577 121.06906 10079 ft 291 kts 358°
2026-05-08 06:29 14.76632 121.06777 10354 ft 311 kts 358°
2026-05-08 06:29 14.78906 121.06638 10386 ft 340 kts 358°
2026-05-08 06:30 14.81412 121.06486 10419 ft 368 kts 358°
2026-05-08 06:30 14.84010 121.06327 11024 ft 378 kts 358°
2026-05-08 06:30 14.86655 121.06166 11750 ft 383 kts 358°
2026-05-08 06:30 14.89348 121.06002 12465 ft 387 kts 358°
2026-05-08 06:31 14.92043 121.05840 13159 ft 391 kts 358°
2026-05-08 06:31 14.94776 121.05674 13805 ft 395 kts 358°
2026-05-08 06:31 14.97553 121.05506 14471 ft 398 kts 358°
2026-05-08 06:31 15.00330 121.05338 15074 ft 402 kts 358°
2026-05-08 06:32 15.03139 121.05167 15660 ft 406 kts 358°
2026-05-08 06:32 15.05973 121.04996 16258 ft 410 kts 358°
2026-05-08 06:32 15.08837 121.04823 16930 ft 414 kts 358°
2026-05-08 06:32 15.11704 121.04649 17528 ft 418 kts 358°
2026-05-08 06:33 15.14648 121.04471 18119 ft 423 kts 358°
2026-05-08 06:33 15.17614 121.04291 18706 ft 427 kts 358°
2026-05-08 06:33 15.20568 121.04112 19264 ft 431 kts 358°
2026-05-08 06:33 15.23588 121.03930 19815 ft 435 kts 357°
2026-05-08 06:34 15.26631 121.03745 20381 ft 438 kts 357°
2026-05-08 06:34 15.29699 121.03559 20895 ft 442 kts 357°
2026-05-08 06:34 15.32813 121.03370 21395 ft 446 kts 357°
2026-05-08 06:34 15.35924 121.03181 21897 ft 449 kts 357°
2026-05-08 06:35 15.39041 121.03123 22358 ft 452 kts
2026-05-08 06:35 15.42174 121.03591 22875 ft 455 kts 14°
2026-05-08 06:35 15.45210 121.04615 23531 ft 457 kts 23°
2026-05-08 06:35 15.48029 121.06135 24088 ft 461 kts 32°
2026-05-08 06:36 15.50592 121.08131 24621 ft 464 kts 42°
2026-05-08 06:36 15.52831 121.10565 25165 ft 468 kts 51°
2026-05-08 06:36 15.54670 121.13372 25739 ft 470 kts 60°
2026-05-08 06:36 15.56237 121.16324 26159 ft 475 kts 59°
2026-05-08 06:37 15.57877 121.19285 26668 ft 477 kts 59°
2026-05-08 06:37 15.59533 121.22263 27169 ft 479 kts 59°
2026-05-08 06:37 15.61211 121.25253 27614 ft 483 kts 59°
2026-05-08 06:37 15.62918 121.28284 28235 ft 482 kts 59°
2026-05-08 06:38 15.64606 121.31275 28891 ft 480 kts 59°
2026-05-08 06:38 15.66283 121.34245 29512 ft 478 kts 59°
2026-05-08 06:38 15.67947 121.37190 30006 ft 478 kts 59°
2026-05-08 06:38 15.69634 121.40177 30630 ft 476 kts 58°
2026-05-08 06:39 15.71303 121.43131 31154 ft 475 kts 58°
2026-05-08 06:39 15.72984 121.46109 31655 ft 475 kts 58°
2026-05-08 06:39 15.74644 121.49050 32126 ft 475 kts 58°
2026-05-08 06:39 15.76329 121.52035 32596 ft 475 kts 58°
2026-05-08 06:40 15.77987 121.54976 33131 ft 474 kts 58°
2026-05-08 06:40 15.79635 121.57897 33711 ft 472 kts 58°
2026-05-08 06:40 15.81289 121.60833 34261 ft 470 kts 58°
2026-05-08 06:40 15.82945 121.63771 34748 ft 470 kts 59°
2026-05-08 06:41 15.84601 121.66711 34887 ft 467 kts 59°
2026-05-08 06:41 15.86235 121.69615 34878 ft 465 kts 59°
2026-05-08 06:41 15.89493 121.75405 34860 ft 466 kts 59°
2026-05-08 06:42 15.92761 121.81219 34855 ft 467 kts 59°
2026-05-08 06:42 15.96045 121.87064 34855 ft 468 kts 59°
2026-05-08 06:43 15.99310 121.92882 34857 ft 468 kts 59°
2026-05-08 06:43 16.02593 121.98735 34851 ft 468 kts 59°
2026-05-08 06:44 16.05863 122.04569 34870 ft 468 kts 59°
2026-05-08 06:44 16.09155 122.10450 34864 ft 468 kts 59°
2026-05-08 06:45 16.12406 122.16260 34860 ft 468 kts 59°
2026-05-08 06:45 16.15691 122.22137 34860 ft 468 kts 59°
2026-05-08 06:46 16.18947 122.27966 34863 ft 468 kts 59°
2026-05-08 06:46 16.22234 122.33855 34861 ft 468 kts 59°
2026-05-08 06:47 16.25507 122.39726 34861 ft 467 kts 59°
2026-05-08 06:47 16.28752 122.45551 34862 ft 467 kts 59°
2026-05-08 06:48 16.32005 122.51393 34865 ft 468 kts 59°
2026-05-08 06:48 16.35254 122.57234 34865 ft 467 kts 59°
2026-05-08 06:49 16.38500 122.63075 34868 ft 466 kts 59°
2026-05-08 06:49 16.41742 122.68913 34874 ft 467 kts 59°
2026-05-08 06:50 16.44993 122.74770 34877 ft 468 kts 59°
2026-05-08 06:50 16.48241 122.80630 34875 ft 468 kts 59°
2026-05-08 06:51 16.51488 122.86491 34877 ft 467 kts 59°
2026-05-08 06:51 16.54736 122.92360 34884 ft 467 kts 59°
2026-05-08 06:52 16.57984 122.98233 34885 ft 467 kts 59°
2026-05-08 06:52 16.61224 123.04098 34883 ft 467 kts 59°
2026-05-08 06:53 16.64455 123.09950 34884 ft 467 kts 59°
2026-05-08 06:53 16.67700 123.15832 34884 ft 467 kts 59°
2026-05-08 06:54 16.70920 123.21674 34885 ft 467 kts 59°
2026-05-08 06:54 16.74150 123.27540 34884 ft 467 kts 59°
2026-05-08 06:55 16.77385 123.33420 34884 ft 467 kts 59°
2026-05-08 06:55 16.80604 123.39276 34885 ft 467 kts 59°
2026-05-08 06:56 16.83837 123.45162 34885 ft 467 kts 59°
2026-05-08 06:56 16.87050 123.51017 34885 ft 467 kts 59°
2026-05-08 06:57 16.90281 123.56909 34884 ft 467 kts 59°
2026-05-08 06:57 16.93503 123.62790 34886 ft 468 kts 59°
2026-05-08 06:58 16.96728 123.68681 34883 ft 467 kts 59°
2026-05-08 06:58 16.99964 123.74599 34886 ft 467 kts 59°
2026-05-08 06:59 17.03188 123.80499 34892 ft 467 kts 59°
2026-05-08 06:59 17.06404 123.86389 34894 ft 467 kts 59°
2026-05-08 07:00 17.09605 123.92258 34901 ft 467 kts 59°
2026-05-08 07:00 17.12823 123.98162 34904 ft 467 kts 59°
2026-05-08 07:01 17.16052 124.04094 34905 ft 468 kts 59°
2026-05-08 07:01 17.19251 124.09975 34899 ft 469 kts 59°
2026-05-08 07:02 17.22478 124.15911 34894 ft 467 kts 59°
2026-05-08 07:02 17.25695 124.21833 34892 ft 467 kts 59°
2026-05-08 07:03 17.28879 124.27702 34890 ft 467 kts 59°
2026-05-08 07:03 17.32088 124.33622 34890 ft 468 kts 59°
2026-05-08 07:04 17.35324 124.39542 34888 ft 467 kts 56°
2026-05-08 07:04 17.39590 124.44600 34900 ft 464 kts 38°
2026-05-08 07:05 17.44675 124.48780 34890 ft 465 kts 37°
2026-05-08 07:05 17.49774 124.52906 34889 ft 464 kts 36°
2026-05-08 07:06 17.54933 124.57057 34886 ft 464 kts 36°
2026-05-08 07:06 17.60053 124.61173 34884 ft 463 kts 36°
2026-05-08 07:07 17.65157 124.65278 34884 ft 463 kts 37°
2026-05-08 07:07 17.70282 124.69402 34885 ft 464 kts 37°
2026-05-08 07:08 17.75383 124.73508 34884 ft 464 kts 37°
2026-05-08 07:08 17.80520 124.77647 34883 ft 464 kts 36°
2026-05-08 07:09 17.85652 124.81785 34882 ft 463 kts 37°
2026-05-08 07:09 17.90765 124.85911 34884 ft 463 kts 37°
2026-05-08 07:10 17.95864 124.90029 34884 ft 463 kts 36°
2026-05-08 07:10 18.00981 124.94164 34883 ft 462 kts 36°
2026-05-08 07:11 18.06084 124.98291 34883 ft 463 kts 36°
2026-05-08 07:11 18.11206 125.02435 34888 ft 463 kts 36°
2026-05-08 07:12 18.16309 125.06569 34887 ft 463 kts 37°
2026-05-08 07:12 18.21402 125.10698 34890 ft 462 kts 36°
2026-05-08 07:13 18.26511 125.14841 34892 ft 462 kts 36°
2026-05-08 07:13 18.31588 125.18964 34898 ft 462 kts 36°
2026-05-08 07:14 18.36698 125.23115 34904 ft 464 kts 36°
2026-05-08 07:14 18.41814 125.27274 34905 ft 464 kts 36°
2026-05-08 07:15 18.46919 125.31428 34906 ft 464 kts 36°
2026-05-08 07:15 18.52051 125.35607 34906 ft 464 kts 36°
2026-05-08 07:16 18.62350 125.44003 34907 ft 464 kts 36°
2026-05-08 07:17 18.66593 125.47466 34906 ft 464 kts 36°
2026-05-08 07:17 18.72557 125.52338 34906 ft 464 kts 36°
2026-05-08 07:18 18.77665 125.56513 34908 ft 464 kts 36°
2026-05-08 07:18 18.82797 125.60712 34907 ft 465 kts 36°
2026-05-08 07:19 18.87038 125.64185 34906 ft 465 kts 36°
2026-05-08 07:19 18.92987 125.69059 34906 ft 465 kts 36°
2026-05-08 07:20 18.98127 125.73274 34905 ft 465 kts 36°
2026-05-08 07:20 19.03243 125.77473 34903 ft 465 kts 36°
2026-05-08 07:21 19.08354 125.81671 34904 ft 465 kts 36°
2026-05-08 07:21 19.13437 125.85850 34906 ft 466 kts 36°
2026-05-08 07:22 19.17700 125.89357 34906 ft 466 kts 36°
2026-05-08 07:22 19.23659 125.94263 34906 ft 466 kts 36°
2026-05-08 07:23 19.27927 125.97779 34910 ft 467 kts 36°
2026-05-08 07:23 19.33941 126.02740 34911 ft 467 kts 36°
2026-05-08 07:24 19.38183 126.06244 34912 ft 465 kts 36°
2026-05-08 07:24 19.44139 126.11162 34916 ft 465 kts 36°
2026-05-08 07:25 19.49240 126.15378 34915 ft 466 kts 36°
2026-05-08 07:26 19.56926 126.21738 34921 ft 466 kts 36°
2026-05-08 07:26 19.62046 126.25981 34926 ft 466 kts 36°
2026-05-08 07:27 19.66266 126.29479 34927 ft 466 kts 36°
2026-05-08 07:27 19.72251 126.34445 34925 ft 465 kts 36°
2026-05-08 07:28 19.76492 126.37968 34926 ft 465 kts 36°
2026-05-08 07:28 19.82436 126.42908 34926 ft 465 kts 36°
2026-05-08 07:29 19.87542 126.47156 34923 ft 465 kts 36°
2026-05-08 07:29 19.92623 126.51386 34926 ft 465 kts 36°
2026-05-08 07:30 19.97742 126.55652 34924 ft 465 kts 36°
2026-05-08 07:30 20.02867 126.59927 34925 ft 465 kts 36°
2026-05-08 07:31 20.07952 126.64171 34926 ft 465 kts 36°
2026-05-08 07:31 20.13061 126.68439 34926 ft 465 kts 36°
2026-05-08 07:32 20.18138 126.72685 34924 ft 466 kts 36°
2026-05-08 07:32 20.23229 126.76945 34922 ft 466 kts 36°
2026-05-08 07:33 20.28350 126.81235 34922 ft 467 kts 36°
2026-05-08 07:33 20.33488 126.85541 34924 ft 467 kts 36°
2026-05-08 07:34 20.38580 126.89815 34922 ft 466 kts 36°
2026-05-08 07:34 20.42839 126.93391 34925 ft 465 kts 36°
2026-05-08 07:35 20.48778 126.98383 34919 ft 467 kts 36°
2026-05-08 07:35 20.53032 127.01961 34917 ft 468 kts 36°
2026-05-08 07:36 20.59015 127.06998 34915 ft 467 kts 36°
2026-05-08 07:36 20.64107 127.11289 34917 ft 467 kts 36°
2026-05-08 07:37 20.69245 127.15623 34916 ft 467 kts 36°
2026-05-08 07:37 20.74346 127.19930 34915 ft 467 kts 36°
2026-05-08 07:38 20.79459 127.24249 34914 ft 468 kts 36°
2026-05-08 07:38 20.83724 127.27856 34913 ft 468 kts 36°
2026-05-08 07:39 20.89684 127.32901 34913 ft 468 kts 36°
2026-05-08 07:39 20.94769 127.37209 34918 ft 467 kts 36°
2026-05-08 07:40 20.99887 127.41547 34928 ft 468 kts 36°
2026-05-08 07:40 21.05058 127.45773 34937 ft 468 kts 35°
2026-05-08 07:41 21.10250 127.50013 34929 ft 468 kts 35°
2026-05-08 07:41 21.15479 127.54288 34929 ft 470 kts 35°
2026-05-08 07:42 21.20677 127.58541 34932 ft 468 kts 35°
2026-05-08 07:42 21.24963 127.62051 34929 ft 468 kts 35°
2026-05-08 07:43 21.30178 127.66325 34928 ft 468 kts 35°
2026-05-08 07:43 21.36251 127.71307 34932 ft 469 kts 35°
2026-05-08 07:44 21.41427 127.75558 34931 ft 469 kts 35°
2026-05-08 07:44 21.45749 127.79110 34934 ft 470 kts 35°
2026-05-08 07:45 21.51796 127.84085 34929 ft 469 kts 35°
2026-05-08 07:45 21.56993 127.88364 34923 ft 470 kts 35°
2026-05-08 07:46 21.59589 127.90504 34928 ft 470 kts 35°